Flag for U.S.A. Weather past 2 weeks in Stockton, California, U.S.A.

Now
81 °F

Sunny.


Feels Like: 79 °F
Forecast: 52 / 82 °F
Wind: 10 mph from Northwest

Location: Stockton Metropolitan Airport


UV Index: 5 (Moderate)

Visibility: 10 mi


Pressure: 29.83 "Hg

Humidity: 25%

Dew point: 42 °F

Location of StocktonLocation

Historic Weather in Stockton

°F

Stockton temperature yesterday

Maximum temperature yesterday: 80 °F (at 2:55 PM)
Minimum temperature yesterday: 53 °F (at 4:55 AM)
Average temperature yesterday: 65 °F

Past Weeks' High & Low Weather Summary

 TemperatureHumidityPressure
High85 °F (Apr 8, 2:55 PM)100% (Apr 2, 3:55 AM)30.21 "Hg (Apr 2, 3:55 AM)
Low41 °F (Apr 3, 6:55 AM)20% (Apr 13, 6:55 PM)29.78 "Hg (Apr 11, 6:55 PM)
Average61 °F67%29.99 "Hg
* Reported Apr 1 1:55 PM — Apr 16 1:55 PM, Stockton, Weather by CustomWeather, © 2014

Note: Actual official high and low records may vary slightly from our data, if they occured in-between our weather recording intervals... More about our weather records

Advertising

Historic Weather Conditions — Data for Previous 24 hours

 ConditionsComfort  
Time TempWeatherWind HumidityBarometerVisibility
1:55 PM
Apr 16
81 °FSunny.10 mph25%29.83 "Hg10 mi
12:55 PM78 °FSunny.14 mph31%29.84 "Hg10 mi
11:55 AM75 °FSunny.13 mph32%29.87 "Hg10 mi
10:55 AM72 °FSunny.12 mph38%29.88 "Hg10 mi
9:55 AM68 °FSunny.12 mph51%29.88 "Hg10 mi
8:55 AM63 °FSunny.6 mph68%29.88 "Hg10 mi
7:55 AM58 °FSunny.6 mph78%29.88 "Hg10 mi
6:55 AM52 °FClear.6 mph86%29.87 "Hg10 mi
5:55 AM53 °FClear.7 mph83%29.85 "Hg10 mi
4:55 AM52 °FClear.7 mph86%29.85 "Hg10 mi
3:55 AM54 °FClear.5 mph80%29.86 "Hg10 mi
2:55 AM55 °FClear.No wind74%29.85 "Hg10 mi
1:55 AM56 °FClear.6 mph70%29.85 "Hg10 mi
12:55 AM56 °FClear.5 mph70%29.86 "Hg10 mi
11:55 PM
Apr 15
59 °FClear.5 mph62%29.85 "Hg10 mi
10:55 PM61 °FClear.9 mph60%29.86 "Hg10 mi
9:55 PM63 °FClear.8 mph75%29.87 "Hg10 mi
8:55 PM66 °FClear.9 mph68%29.86 "Hg10 mi
7:55 PM69 °FSunny.10 mph45%29.84 "Hg10 mi
6:55 PM74 °FSunny.10 mph41%29.83 "Hg10 mi
5:55 PM78 °FSunny.10 mph29%29.84 "Hg10 mi
3:55 PM80 °FSunny.10 mph30%29.88 "Hg10 mi
Weather by CustomWeather, © 2014

See weather overview